| time (UTC) | temp F | wind direction | speed knots | gust knots | rain 1hr in | rain 24hr in | rain mn in | humidity % | barometer mb |
| 20260906063345 | 68 | 350 | 7.0 | 0.0 | 0.00 | 0.00 | 0.00 | 64 | 1018.0 |
| 20260906062004 | 66 | 340 | 7.0 | 0.0 | 0.00 | 0.00 | 0.00 | 68 | 1018.0 |
| 20260906060344 | 66 | 340 | 7.0 | 0.0 | 0.00 | 0.00 | 0.00 | 68 | 1018.0 |
| 20260906054910 | 66 | 340 | 7.0 | 0.0 | 0.00 | 0.00 | 0.00 | 68 | 1018.0 |
| 20260906053344 | 66 | 340 | 7.0 | 0.0 | 0.00 | 0.00 | 0.00 | 68 | 1018.0 |
| 20260906051845 | 64 | 330 | 7.0 | 0.0 | 0.00 | 0.00 | 0.00 | 73 | 1018.0 |
| 20260906050504 | 64 | 330 | 7.0 | 0.0 | 0.00 | 0.00 | 0.00 | 73 | 1018.0 |
| 20260906045004 | 63 | 330 | 5.2 | 0.0 | 0.00 | 0.00 | 0.00 | 77 | 1017.0 |
| 20260906043453 | 63 | 330 | 5.2 | 0.0 | 0.00 | 0.00 | 0.00 | 77 | 1017.0 |
| 20260906042005 | 63 | 350 | 7.0 | 0.0 | 0.00 | 0.00 | 0.00 | 73 | 1017.0 |
| 20260906040404 | 63 | 350 | 7.0 | 0.0 | 0.00 | 0.00 | 0.00 | 73 | 1017.0 |
| 20260906034905 | 64 | 350 | 7.8 | 0.0 | 0.00 | 0.00 | 0.00 | 68 | 1017.0 |
| 20260906033505 | 64 | 350 | 7.8 | 0.0 | 0.00 | 0.00 | 0.00 | 68 | 1017.0 |
| 20260906032004 | 64 | 360 | 13.0 | 0.0 | 0.00 | 0.00 | 0.00 | 68 | 1016.0 |
| 20260906030505 | 64 | 360 | 13.0 | 0.0 | 0.00 | 0.00 | 0.00 | 68 | 1016.0 |
| 20260906024912 | 64 | 350 | 8.7 | 0.0 | 0.00 | 0.00 | 0.00 | 73 | 1016.0 |
| 20260906023345 | 64 | 350 | 8.7 | 0.0 | 0.00 | 0.00 | 0.00 | 73 | 1016.0 |
| 20260906021851 | 66 | 360 | 13.0 | 0.0 | 0.00 | 0.00 | 0.00 | 64 | 1016.0 |
| 20260906020346 | 66 | 360 | 13.0 | 0.0 | 0.00 | 0.00 | 0.00 | 64 | 1016.0 |
| 20260906014846 | 68 | 360 | 12.2 | 0.0 | 0.00 | 0.00 | 0.00 | 60 | 1015.0 |
| 20260906013505 | 68 | 360 | 12.2 | 0.0 | 0.00 | 0.00 | 0.00 | 60 | 1015.0 |
| 20260906011844 | 68 | 360 | 12.2 | 0.0 | 0.00 | 0.00 | 0.00 | 69 | 1015.0 |
| 20260906010344 | 68 | 360 | 12.2 | 0.0 | 0.00 | 0.00 | 0.00 | 69 | 1015.0 |
| 20260906005005 | 70 | 350 | 13.9 | 0.0 | 0.00 | 0.00 | 0.00 | 69 | 1016.0 |
| 20260906003515 | 70 | 350 | 13.9 | 0.0 | 0.00 | 0.00 | 0.00 | 69 | 1016.0 |
| 20260906002005 | 70 | 350 | 12.2 | 0.0 | 0.00 | 0.00 | 0.00 | 64 | 1016.0 |
| 20260906000455 | 70 | 350 | 12.2 | 0.0 | 0.00 | 0.00 | 0.00 | 64 | 1016.0 |
| 20260905234855 | 70 | 350 | 12.2 | 0.0 | 0.00 | 0.00 | 0.00 | 64 | 1015.0 |
| 20260905233344 | 70 | 350 | 12.2 | 0.0 | 0.00 | 0.00 | 0.00 | 64 | 1015.0 |
| 20260905232007 | 72 | 350 | 13.0 | 0.0 | 0.00 | 0.00 | 0.00 | 61 | 1015.0 |
| 20260905230417 | 72 | 350 | 13.0 | 0.0 | 0.00 | 0.00 | 0.00 | 61 | 1015.0 |
| 20260905225006 | 72 | 340 | 14.8 | 0.0 | 0.00 | 0.00 | 0.00 | 61 | 1014.0 |
| 20260905223358 | 72 | 340 | 14.8 | 0.0 | 0.00 | 0.00 | 0.00 | 61 | 1014.0 |
| 20260905221950 | 73 | 330 | 17.4 | 0.0 | 0.00 | 0.00 | 0.00 | 57 | 1014.0 |
| 20260905220505 | 73 | 330 | 17.4 | 0.0 | 0.00 | 0.00 | 0.00 | 57 | 1014.0 |
| 20260905215004 | 73 | 320 | 13.0 | 0.0 | 0.00 | 0.00 | 0.00 | 61 | 1014.0 |
| 20260905213345 | 73 | 320 | 13.0 | 0.0 | 0.00 | 0.00 | 0.00 | 61 | 1014.0 |
| 20260905210344 | 73 | 320 | 9.6 | 0.0 | 0.00 | 0.00 | 0.00 | 61 | 1014.0 |
| 20260905204855 | 73 | 1.7 | 0.0 | 0.00 | 0.00 | 0.00 | 53 | 1014.0 | |
| 20260905203344 | 73 | 1.7 | 0.0 | 0.00 | 0.00 | 0.00 | 53 | 1014.0 | |
| 20260905201844 | 73 | 1.7 | 0.0 | 0.00 | 0.00 | 0.00 | 57 | 1013.0 | |
| 20260905200505 | 73 | 1.7 | 0.0 | 0.00 | 0.00 | 0.00 | 57 | 1013.0 | |
| 20260905194958 | 72 | 100 | 2.6 | 0.0 | 0.00 | 0.00 | 0.00 | 65 | 1013.0 |
| 20260905193345 | 72 | 100 | 2.6 | 0.0 | 0.00 | 0.00 | 0.00 | 65 | 1013.0 |
| 20260905191914 | 75 | 130 | 2.6 | 0.0 | 0.00 | 0.00 | 0.00 | 57 | 1013.0 |
| 20260905190345 | 75 | 130 | 2.6 | 0.0 | 0.00 | 0.00 | 0.00 | 57 | 1013.0 |
| 20260905184842 | 73 | 160 | 6.1 | 0.0 | 0.00 | 0.00 | 0.00 | 61 | 1013.0 |
| 20260905183350 | 73 | 160 | 6.1 | 0.0 | 0.00 | 0.00 | 0.00 | 61 | 1013.0 |
| 20260905181841 | 75 | 160 | 4.3 | 0.0 | 0.00 | 0.00 | 0.00 | 61 | 1013.0 |
| 20260905180341 | 75 | 160 | 4.3 | 0.0 | 0.00 | 0.00 | 0.00 | 61 | 1013.0 |
| 20260905173344 | 77 | 130 | 6.1 | 0.0 | 0.00 | 0.00 | 0.00 | 51 | 1013.0 |
| 20260905170345 | 82 | 190 | 7.0 | 0.0 | 0.00 | 0.00 | 0.00 | 35 | 1013.0 |
| 20260905164845 | 86 | 220 | 7.8 | 0.0 | 0.00 | 0.00 | 0.00 | 31 | 1013.0 |
| 20260905163346 | 86 | 220 | 7.8 | 0.0 | 0.00 | 0.00 | 0.00 | 31 | 1013.0 |
| 20260905161843 | 90 | 220 | 11.3 | 0.0 | 0.00 | 0.00 | 0.00 | 27 | 1012.0 |
| 20260905160345 | 90 | 220 | 11.3 | 0.0 | 0.00 | 0.00 | 0.00 | 27 | 1012.0 |
| 20260905154858 | 91 | 230 | 11.3 | 0.0 | 0.00 | 0.00 | 0.00 | 26 | 1012.0 |
| 20260905153344 | 91 | 230 | 11.3 | 0.0 | 0.00 | 0.00 | 0.00 | 26 | 1012.0 |
| 20260905151845 | 91 | 230 | 9.6 | 0.0 | 0.00 | 0.00 | 0.00 | 26 | 1013.0 |
| 20260905150345 | 91 | 230 | 9.6 | 0.0 | 0.00 | 0.00 | 0.00 | 26 | 1013.0 |
| 20260905144838 | 93 | 250 | 8.7 | 0.0 | 0.00 | 0.00 | 0.00 | 24 | 1013.0 |
| 20260905143344 | 93 | 250 | 8.7 | 0.0 | 0.00 | 0.00 | 0.00 | 24 | 1013.0 |
| 20260905141842 | 91 | 250 | 11.3 | 0.0 | 0.00 | 0.00 | 0.00 | 26 | 1013.0 |
| 20260905140341 | 91 | 250 | 11.3 | 0.0 | 0.00 | 0.00 | 0.00 | 26 | 1013.0 |
| 20260905135002 | 91 | 240 | 7.8 | 0.0 | 0.00 | 0.00 | 0.00 | 26 | 1013.0 |
| 20260905133345 | 91 | 240 | 7.8 | 0.0 | 0.00 | 0.00 | 0.00 | 26 | 1013.0 |
| 20260905131847 | 91 | 210 | 12.2 | 0.0 | 0.00 | 0.00 | 0.00 | 24 | 1013.0 |
| 20260905130406 | 91 | 210 | 12.2 | 0.0 | 0.00 | 0.00 | 0.00 | 24 | 1013.0 |
| 20260905124839 | 91 | 220 | 11.3 | 0.0 | 0.00 | 0.00 | 0.00 | 26 | 1014.0 |
| 20260905123345 | 91 | 220 | 11.3 | 0.0 | 0.00 | 0.00 | 0.00 | 26 | 1014.0 |
| 20260905121912 | 91 | 220 | 11.3 | 0.0 | 0.00 | 0.00 | 0.00 | 26 | 1014.0 |
| 20260905120345 | 91 | 220 | 11.3 | 0.0 | 0.00 | 0.00 | 0.00 | 26 | 1014.0 |
| 20260905114845 | 91 | 220 | 11.3 | 0.0 | 0.00 | 0.00 | 0.00 | 26 | 1014.0 |
| 20260905113344 | 91 | 220 | 11.3 | 0.0 | 0.00 | 0.00 | 0.00 | 26 | 1014.0 |
| 20260905111903 | 91 | 220 | 9.6 | 0.0 | 0.00 | 0.00 | 0.00 | 26 | 1014.0 |
| 20260905110344 | 91 | 220 | 9.6 | 0.0 | 0.00 | 0.00 | 0.00 | 26 | 1014.0 |
| 20260905104845 | 90 | 210 | 8.7 | 0.0 | 0.00 | 0.00 | 0.00 | 27 | 1015.0 |
| 20260905103345 | 90 | 210 | 8.7 | 0.0 | 0.00 | 0.00 | 0.00 | 27 | 1015.0 |
| 20260905101844 | 90 | 210 | 12.2 | 0.0 | 0.00 | 0.00 | 0.00 | 27 | 1015.0 |
| 20260905100345 | 90 | 210 | 12.2 | 0.0 | 0.00 | 0.00 | 0.00 | 27 | 1015.0 |
| 20260905095005 | 90 | 210 | 11.3 | 0.0 | 0.00 | 0.00 | 0.00 | 27 | 1015.0 |
| 20260905093344 | 90 | 210 | 11.3 | 0.0 | 0.00 | 0.00 | 0.00 | 27 | 1015.0 |
| 20260905091845 | 86 | 220 | 11.3 | 0.0 | 0.00 | 0.00 | 0.00 | 33 | 1015.0 |
| 20260905090344 | 86 | 220 | 11.3 | 0.0 | 0.00 | 0.00 | 0.00 | 33 | 1015.0 |
| 20260905084844 | 86 | 240 | 8.7 | 0.0 | 0.00 | 0.00 | 0.00 | 33 | 1016.0 |
| 20260905083345 | 86 | 240 | 8.7 | 0.0 | 0.00 | 0.00 | 0.00 | 33 | 1016.0 |
| 20260905081844 | 86 | 230 | 11.3 | 0.0 | 0.00 | 0.00 | 0.00 | 35 | 1016.0 |
| 20260905080345 | 86 | 230 | 11.3 | 0.0 | 0.00 | 0.00 | 0.00 | 35 | 1016.0 |
| 20260905074844 | 82 | 240 | 8.7 | 0.0 | 0.00 | 0.00 | 0.00 | 40 | 1016.0 |
| 20260905073353 | 82 | 240 | 8.7 | 0.0 | 0.00 | 0.00 | 0.00 | 40 | 1016.0 |
| 20260905071845 | 81 | 240 | 8.7 | 0.0 | 0.00 | 0.00 | 0.00 | 42 | 1016.0 |
| 20260905070344 | 81 | 240 | 8.7 | 0.0 | 0.00 | 0.00 | 0.00 | 42 | 1016.0 |
| 20260905064845 | 79 | 230 | 5.2 | 0.0 | 0.00 | 0.00 | 0.00 | 45 | 1016.0 |